User: anonymous   Login
Location: Unspecified
(0.0000°N, 0.0000°E)
Time: 10:18:52
(UTC+00:00)
Language:

Amsat-Oscar-8 - Orbit

View from above orbital plane
View from above orbital plane
View from above satellite
View from above satellite

Ground track
Ground track

The orbit data is extracted from the following two-line orbital elements,

1 10703U 78026B   17294.92895785 -.00000212 +00000-0 -11676-3 0  9991
2 10703 098.9048 253.8723 0006786 348.3245 081.9695 13.99234477022064
Epoch (UTC): 21 October 2017 22:17:41
Eccentricity: 0.0006786
inclination: 98.9048°
perigee height: 891 km
apogee height: 901 km
right ascension of ascending node: 253.8723°
argument of perigee: 348.3245°
revolutions per day: 13.99234477
mean anomaly at epoch: 81.9695°
orbit number at epoch: 2206

The dashed part of the orbit path shows where the satellite is in the earth's shadow,  

DLR